Regional Weather Roundup
Issued by NWS

Home | Current Version | Previous Version | Graphics & Text | Print | Product List | Glossary On
Versions: 1 2 3 4 5 6 7 8 9 10 11 12 13 14 15 16 17 18 19 20 21 22 23 24 25 26 27 28 29 30 31 32 33 34 35 36 37 38 39 40 41 42 43 44 45 46 47 48 49 50
797
ASUS44 KMEG 230010
RWRTN
TENNESSEE HOURLY STATE WEATHER ROUNDUP
NATIONAL WEATHER SERVICE MEMPHIS TN
600 PM CST THU FEB 22 2018

TNZ002-004-019-021-049-052-054-088>092-230100-
WEST TENNESSEE

CITY           SKY/WX    TMP DP  RH WIND       PRES   REMARKS
MEMPHIS INTL   CLOUDY    53  50  89 NE8       30.28S
NWS MEMPHIS      N/A     52 N/A N/A MISG        N/A
JACKSON        CLOUDY    54  54 100 NW6       30.31R FOG
DYERSBURG      LGT RAIN  52  49  89 CALM        N/A
COVINGTON      CLOUDY    52  52 100 N3        30.30S
UNION CITY     CLOUDY    52  50  93 N6        30.30F
BOLIVAR        FOG       54  54 100 CALM      30.28S VSB 1/4
PARIS          CLOUDY    55  54  94 N3        30.30R
HUNTINGDON     CLOUDY    55  55 100 CALM      30.30R
LEXINGTON      CLOUDY    55  55 100 CALM      30.29R
SELMER         FOG       57  57 100 CALM      30.28R VSB 3/4
SAVANNAH       PTCLDY    59  57  94 CALM      30.27S
$$

TNZ008-025-027-028-033-062-065-066-230100-
NORTH MIDDLE TENNESSEE

CITY           SKY/WX    TMP DP  RH WIND       PRES   REMARKS
NASHVILLE      FOG       59  58  96 CALM      30.31F VSB 1/2
PORTLAND       CLOUDY    59  57  94 SE3       30.30F
CLARKSVILLE    CLOUDY    57  53  86 CALM      30.31R
SMYRNA         FOG       58  58 100 CALM      30.32F VSB 1/4
COOKEVILLE     PTCLDY    63  61  94 CALM      30.33R
GALLATIN       CLOUDY    61  59  94 CALM      30.33F
CROSSVILLE     FAIR      62  60  93 CALM      30.36R
$$

TNZ061-075-076-078-094-096-097-230100-
SOUTH MIDDLE TENNESSEE

CITY           SKY/WX    TMP DP  RH WIND       PRES   REMARKS
FAYETTEVILLE   CLEAR     68  61  77 CALM      30.30F
TULLAHOMA      CLEAR     66  59  77 CALM      30.32S
WINCHESTER     CLEAR     66  61  82 CALM      30.33R
MCMINNVILLE    PTCLDY    64  61  88 CALM      30.33R
COLUMBIA       CLEAR     63  63 100 CALM      30.27F
SHELBYVILLE    CLEAR     64  61  88 SE3       30.31F
$$

TNZ017-018-042-046-047-230100-
NORTHEAST TENNESSEE

CITY           SKY/WX    TMP DP  RH WIND       PRES   REMARKS
TRI CITIES     MOCLDY    69  57  65 CALM      30.36R
ELIZABETHTON   FAIR      66  57  72 CALM      30.36S
$$

TNZ012-013-036-069-073-074-230100-
CENTRAL EAST TENNESSEE

CITY           SKY/WX    TMP DP  RH WIND       PRES   REMARKS
KNOXVILLE      CLOUDY    69  62  78 CALM      30.32R
OAK RIDGE      FAIR      65  65 100 CALM      30.33F
DOWNTOWN KNOXV CLEAR     64  61  88 CALM      30.33R
GATLINBURG     CLEAR     72  59  64 CALM      30.32S
MORRISTOWN     MOCLDY    72  59  64 NW3       30.33S
JACKSBORO      CLEAR     64  61  88 CALM      30.36F
$$

TNZ083-085-099-230100-
SOUTHEAST TENNESSEE

CITY           SKY/WX    TMP DP  RH WIND       PRES   REMARKS
CHATTANOOGA    MOCLDY    75  57  53 CALM      30.32R
$$

SKY/WX REPORTED AS FAIR MEANS FEW OR NO CLOUDS BELOW
12 THOUSAND FEET.





USA.gov is the U.S. government's official web portal to all federal, state and local government web resources and services.